Location: Star Camp Observatory
(34.2910°N, 116.3827°W)
Time: 09:47:05
(UTC-07:00)

Hubble Space Telescope - Visible Passes

Search period start: 22 October 2019 00:00
Search period end: 01 November 2019 00:00
Orbit: 536 x 540 km, 28.5° (Epoch: 21 October)

Date Brightness Start Highest point End Pass type
(mag) Time Alt. Az. Time Alt. Az. Time Alt. Az.
25 Oct 3.7 06:23:10 10° SSE 06:24:01 11° SSE 06:24:52 10° SE visible
26 Oct 3.4 06:11:21 10° S 06:13:20 13° SSE 06:15:19 10° SE visible
27 Oct 3.3 06:00:05 10° SSW 06:02:39 16° SSE 06:05:13 10° ESE visible
28 Oct 3.0 05:49:02 10° SSW 05:51:59 19° SSE 05:54:56 10° ESE visible
29 Oct 2.7 05:38:50 13° SSW 05:41:19 22° SSE 05:44:33 10° ESE visible
30 Oct 2.5 05:29:07 20° SSW 05:30:40 25° SSE 05:34:06 10° ESE visible
31 Oct 2.1 05:19:20 27° S 05:20:01 28° S 05:23:36 10° ESE visible
